Location: downtown San Diego
(32.7310°N, 117.1990°W)
Time: 14:38:30
(UTC-07:00)

ERS-2 - Pass Details

Date: 14 June 2018
Orbit: 498 x 501 km, 98.5° (Epoch: 20 August)

Event Time Altitude Azimuth Distance (km) Brightness Sun altitude
Exits shadow 21:22:23 12° 190° (S) 1,594 4.4 -15.4°
Maximum altitude 21:25:35 41° 260° (W) 737 3.2 -15.9°
Drops below altitude 10° 21:29:05 10° 331° (NNW) 1,711 6.0 -16.4°
Sets 21:31:15 0° 339° (NNW) 2,598 6.9 -16.7°
